Location: Vancouver
(49.2827°N, 123.1207°W)
Time: 23:11:18
(UTC-07:00)

ISS - Pass Details

Date: 29 June 2024
Orbit: 410 x 424 km, 51.6° (Epoch: 12 July)

Event Time Altitude Azimuth Distance (km) Brightness Sun altitude
Exits shadow 04:04:52 - 252° (WSW) 1,641 -1.3 -8.4°
Reaches altitude 10° 04:05:15 10° 252° (WSW) 1,484 -1.5 -8.3°
Maximum altitude 04:08:35 85° 339° (NNW) 422 -3.7 -8.0°
Drops below altitude 10° 04:11:57 10° 71° (ENE) 1,498 0.1 -7.7°
Sets 04:14:04 0° 72° (ENE) 2,366 1.2 -7.4°
